StationID,Date,MaxTemp,MinTemp,Precipitation,Snowfall,SnowDepth
"CA001096470","1974-12-01",30.02,24.08,5.00,5.00,
"CA001096470","1974-12-02",33.98,19.94,30.00,30.00,
"CA001096470","1974-12-03",33.98,24.98,0.00,0.00,
"CA001096470","1974-12-04",37.04,30.92,3.00,0.00,
"CA001096470","1974-12-05",42.08,30.02,0.00,0.00,
"CA001096470","1974-12-06",26.96,21.92,0.00,0.00,
"CA001096470","1974-12-07",42.08,21.02,28.00,0.00,
"CA001096470","1974-12-08",39.02,35.96,23.00,0.00,
"CA001096470","1974-12-09",39.92,26.96,0.00,0.00,
"CA001096470","1974-12-10",39.92,30.02,0.00,0.00,
"CA001096470","1974-12-11",30.92,24.08,33.00,33.00,
"CA001096470","1974-12-12",19.04,8.96,0.00,0.00,
"CA001096470","1974-12-13",32.00,12.02,23.00,23.00,
"CA001096470","1974-12-14",35.96,15.08,0.00,0.00,
"CA001096470","1974-12-15",39.92,28.94,71.00,71.00,
"CA001096470","1974-12-16",44.06,32.00,0.00,0.00,
"CA001096470","1974-12-17",33.08,24.08,5.00,5.00,
"CA001096470","1974-12-18",35.96,26.06,0.00,0.00,
"CA001096470","1974-12-19",35.96,28.94,41.00,41.00,
"CA001096470","1974-12-20",30.92,24.08,51.00,51.00,
"CA001096470","1974-12-21",30.92,23.00,33.00,33.00,
"CA001096470","1974-12-22",15.08,1.04,0.00,0.00,
"CA001096470","1974-12-23",28.94,1.04,127.00,127.00,
"CA001096470","1974-12-24",37.04,23.00,0.00,0.00,
"CA001096470","1974-12-25",39.02,32.00,10.00,10.00,
"CA001096470","1974-12-26",33.98,24.98,0.00,0.00,
"CA001096470","1974-12-27",21.02,5.00,0.00,0.00,
"CA001096470","1974-12-28",33.08,5.00,0.00,0.00,
"CA001096470","1974-12-29",35.06,24.98,5.00,5.00,
"CA001096470","1974-12-30",30.92,17.96,0.00,0.00,
"CA001096470","1974-12-31",35.06,26.06,25.00,25.00,
"CA001096470","1975-01-01",33.98,26.96,0.00,0.00,
"CA001096470","1975-01-02",33.98,19.94,5.00,5.00,
"CA001096470","1975-01-03",30.02,10.94,3.00,3.00,
"CA001096470","1975-01-04",28.94,8.96,5.00,5.00,
"CA001096470","1975-01-05",32.00,21.92,38.00,38.00,
"CA001096470","1975-01-06",26.96,17.96,0.00,0.00,
"CA001096470","1975-01-07",17.96,1.94,8.00,8.00,
"CA001096470","1975-01-08",-0.04,-9.94,18.00,18.00,
"CA001096470","1975-01-09",-9.94,-18.94,0.00,0.00,
"CA001096470","1975-01-10",-16.96,-32.98,0.00,0.00,
"CA001096470","1975-01-11",17.96,-34.96,43.00,43.00,
"CA001096470","1975-01-12",26.96,-18.94,0.00,0.00,
"CA001096470","1975-01-13",24.98,15.08,0.00,0.00,
"CA001096470","1975-01-14",26.06,3.02,0.00,0.00,
"CA001096470","1975-01-15",12.02,-0.94,0.00,0.00,
"CA001096470","1975-01-16",28.94,-5.08,48.00,48.00,
"CA001096470","1975-01-17",30.92,15.08,0.00,0.00,
"CA001096470","1975-01-18",37.04,6.08,0.00,0.00,
"CA001096470","1975-01-19",44.06,19.94,3.00,0.00,
"CA001096470","1975-01-20",37.04,28.94,25.00,25.00,
"CA001096470","1975-01-21",32.00,24.98,157.00,157.00,
"CA001096470","1975-01-22",37.04,30.02,74.00,0.00,
"CA001096470","1975-01-23",39.02,33.98,13.00,0.00,
"CA001096470","1975-01-24",37.04,28.94,0.00,0.00,
"CA001096470","1975-01-25",26.06,17.96,5.00,5.00,
"CA001096470","1975-01-26",21.02,10.04,0.00,0.00,
"CA001096470","1975-01-27",21.92,1.94,41.00,41.00,
"CA001096470","1975-01-28",23.00,6.08,0.00,0.00,
"CA001096470","1975-01-29",10.94,-0.94,0.00,0.00,
"CA001096470","1975-01-30",19.04,3.02,8.00,8.00,
"CA001096470","1975-01-31",10.94,6.98,5.00,5.00,
"CA001096470","1975-02-01",1.04,-0.94,10.00,10.00,
"CA001096470","1975-02-02",5.00,-5.98,0.00,0.00,
"CA001096470","1975-02-03",6.98,-14.98,0.00,0.00,
"CA001096470","1975-02-04",10.94,-9.94,0.00,0.00,
"CA001096470","1975-02-05",1.94,-22.00,0.00,0.00,
"CA001096470","1975-02-06",3.02,-20.92,0.00,0.00,
"CA001096470","1975-02-07",15.98,-11.92,0.00,0.00,
"CA001096470","1975-02-08",5.00,-20.92,0.00,0.00,
"CA001096470","1975-02-09",14.00,-11.92,5.00,5.00,
"CA001096470","1975-02-10",-0.04,-4.00,5.00,5.00,
"CA001096470","1975-02-11",-5.08,-18.04,0.00,0.00,
"CA001096470","1975-02-12",-2.02,-11.92,30.00,30.00,
"CA001096470","1975-02-13",-2.02,-14.98,0.00,0.00,
"CA001096470","1975-02-14",26.96,-16.96,13.00,13.00,
"CA001096470","1975-02-15",32.00,1.94,0.00,0.00,
"CA001096470","1975-02-16",32.00,5.00,0.00,0.00,
"CA001096470","1975-02-17",35.96,12.02,25.00,25.00,
"CA001096470","1975-02-18",37.94,28.04,25.00,25.00,
"CA001096470","1975-02-19",44.96,32.00,25.00,25.00,
"CA001096470","1975-02-20",35.06,19.04,0.00,0.00,
"CA001096470","1975-02-21",37.04,17.96,10.00,10.00,
"CA001096470","1975-02-22",44.06,30.02,0.00,0.00,
"CA001096470","1975-02-23",41.00,35.06,0.00,0.00,
"CA001096470","1975-02-24",35.96,24.08,0.00,0.00,
"CA001096470","1975-02-25",37.94,6.98,0.00,0.00,
"CA001096470","1975-02-26",32.00,10.94,0.00,0.00,
"CA001096470","1975-02-27",42.98,15.08,0.00,0.00,
"CA001096470","1975-02-28",35.96,26.96,0.00,0.00,
"CA001096470","1975-03-01",35.06,24.98,30.00,30.00,
"CA001096470","1975-03-02",37.04,23.00,15.00,15.00,
"CA001096470","1975-03-03",35.06,30.92,48.00,46.00,
"CA001096470","1975-03-04",35.06,17.96,0.00,0.00,
"CA001096470","1975-03-05",33.98,6.08,0.00,0.00,
"CA001096470","1975-03-06",33.08,15.98,0.00,0.00,
"CA001096470","1975-03-07",28.94,6.08,0.00,0.00,
"CA001096470","1975-03-08",30.02,10.94,3.00,3.00,
"CA001096470","1975-03-09",24.98,15.08,0.00,0.00,
"CA001096470","1975-03-10",33.08,1.04,0.00,0.00,
"CA001096470","1975-03-11",37.04,1.04,0.00,0.00,
"CA001096470","1975-03-12",37.94,15.98,0.00,0.00,
"CA001096470","1975-03-13",42.08,10.94,3.00,3.00,
"CA001096470","1975-03-14",44.96,26.96,8.00,8.00,
"CA001096470","1975-03-15",39.02,28.94,13.00,13.00,
"CA001096470","1975-03-16",39.92,30.92,0.00,0.00,
"CA001096470","1975-03-17",33.08,23.00,117.00,117.00,
"CA001096470","1975-03-18",35.96,24.08,0.00,0.00,
"CA001096470","1975-03-19",37.04,28.04,13.00,13.00,
"CA001096470","1975-03-20",42.98,15.98,0.00,0.00,
"CA001096470","1975-03-21",41.00,12.92,0.00,0.00,
"CA001096470","1975-03-22",44.06,26.06,5.00,5.00,
"CA001096470","1975-03-23",41.00,21.02,5.00,5.00,
"CA001096470","1975-03-24",35.96,21.02,0.00,0.00,
"CA001096470","1975-03-25",33.08,12.92,53.00,53.00,
"CA001096470","1975-03-26",35.96,3.92,0.00,0.00,
"CA001096470","1975-03-27",39.92,3.92,25.00,25.00,
"CA001096470","1975-03-28",39.02,28.04,13.00,13.00,
"CA001096470","1975-03-29",53.06,32.00,0.00,0.00,
"CA001096470","1975-03-30",37.04,28.04,0.00,0.00,
"CA001096470","1975-03-31",39.02,17.96,0.00,0.00,
"CA001096470","1975-04-01",42.08,23.00,0.00,0.00,
"CA001096470","1975-04-02",39.02,28.94,0.00,0.00,
"CA001096470","1975-04-03",33.08,26.06,10.00,10.00,
"CA001096470","1975-04-04",41.00,19.04,0.00,0.00,
"CA001096470","1975-04-05",41.00,12.92,0.00,0.00,
"CA001096470","1975-04-06",48.92,14.00,0.00,0.00,
"CA001096470","1975-04-07",51.08,21.92,0.00,0.00,
"CA001096470","1975-04-08",55.04,19.94,0.00,0.00,
"CA001096470","1975-04-09",57.02,24.08,0.00,0.00,
"CA001096470","1975-04-10",62.06,23.00,0.00,0.00,
"CA001096470","1975-04-11",60.08,26.06,0.00,0.00,
"CA001096470","1975-04-12",55.94,26.96,0.00,0.00,
"CA001096470","1975-04-13",50.00,30.92,0.00,0.00,
"CA001096470","1975-04-14",53.06,33.08,0.00,0.00,
"CA001096470","1975-04-15",57.02,24.08,0.00,0.00,
"CA001096470","1975-04-16",60.08,33.98,0.00,0.00,
"CA001096470","1975-04-17",64.04,24.98,0.00,0.00,
"CA001096470","1975-04-18",53.96,42.08,28.00,0.00,
"CA001096470","1975-04-19",44.96,28.04,0.00,0.00,
"CA001096470","1975-04-20",42.98,28.94,127.00,0.00,
"CA001096470","1975-04-21",46.94,26.06,0.00,0.00,
"CA001096470","1975-04-22",55.94,26.96,0.00,0.00,
"CA001096470","1975-04-23",51.98,28.04,0.00,0.00,
"CA001096470","1975-04-24",55.04,26.06,0.00,0.00,
"CA001096470","1975-04-25",66.02,28.94,0.00,0.00,
"CA001096470","1975-04-26",68.00,26.96,23.00,0.00,
"CA001096470","1975-04-27",53.06,35.96,0.00,0.00,
"CA001096470","1975-04-28",53.06,28.94,0.00,0.00,
"CA001096470","1975-04-29",60.08,21.92,0.00,0.00,
"CA001096470","1975-04-30",,,0.00,0.00,
"CA001096470","1975-05-01",,,0.00,0.00,
"CA001096470","1975-05-02",,,0.00,0.00,
"CA001096470","1975-05-03",,,,0.00,
"CA001096470","1975-05-04",57.92,,0.00,0.00,
"CA001096470","1975-05-05",60.08,41.00,0.00,0.00,
"CA001096470","1975-05-06",48.92,28.94,3.00,0.00,
"CA001096470","1975-05-07",57.92,30.92,0.00,0.00,
"CA001096470","1975-05-08",73.94,26.96,0.00,0.00,
"CA001096470","1975-05-09",78.98,39.02,0.00,0.00,
"CA001096470","1975-05-10",80.06,39.92,0.00,0.00,
"CA001096470","1975-05-11",78.98,41.00,84.00,0.00,
"CA001096470","1975-05-12",60.08,35.06,0.00,0.00,
"CA001096470","1975-05-13",64.04,33.08,0.00,0.00,
"CA001096470","1975-05-14",73.04,42.08,0.00,0.00,
"CA001096470","1975-05-15",51.08,44.96,56.00,0.00,
"CA001096470","1975-05-16",57.02,35.96,0.00,0.00,
"CA001096470","1975-05-17",,,,0.00,
"CA001096470","1975-05-19",50.00,,,0.00,
"CA001096470","1975-05-20",66.92,32.00,0.00,0.00,
"CA001096470","1975-05-21",57.02,44.96,38.00,0.00,
"CA001096470","1975-05-22",51.98,42.08,0.00,0.00,
"CA001096470","1975-05-23",,37.94,,,
"CA001096470","1975-05-25",60.98,,0.00,0.00,
"CA001096470","1975-05-26",69.08,33.08,0.00,0.00,
"CA001096470","1975-05-27",73.04,46.04,0.00,0.00,
"CA001096470","1975-05-28",64.94,41.00,0.00,0.00,
"CA001096470","1975-05-29",69.08,44.96,0.00,0.00,
"CA001096470","1975-05-30",,39.02,0.00,0.00,
"CA001096470","1975-05-31",,,0.00,0.00,
"CA001096470","1975-06-01",82.04,35.96,0.00,0.00,
"CA001096470","1975-06-02",69.98,53.06,0.00,0.00,
"CA001096470","1975-06-03",60.98,48.02,38.00,0.00,
"CA001096470","1975-06-04",55.94,44.06,51.00,0.00,
"CA001096470","1975-06-05",57.92,37.94,25.00,0.00,
"CA001096470","1975-06-06",60.08,41.00,0.00,0.00,
"CA001096470","1975-06-07",62.06,41.00,0.00,0.00,
"CA001096470","1975-06-08",64.04,41.00,0.00,0.00,
"CA001096470","1975-06-09",73.94,37.04,0.00,0.00,
"CA001096470","1975-06-10",69.08,48.92,28.00,0.00,
"CA001096470","1975-06-11",71.06,41.00,0.00,0.00,
"CA001096470","1975-06-12",64.94,51.98,132.00,0.00,
"CA001096470","1975-06-13",69.08,51.08,5.00,0.00,
"CA001096470","1975-06-14",,,0.00,0.00,
"CA001096470","1975-06-15",,,13.00,0.00,
"CA001096470","1975-06-16",64.94,48.92,48.00,0.00,
"CA001096470","1975-06-17",71.06,42.08,5.00,0.00,
"CA001096470","1975-06-18",71.06,42.98,25.00,0.00,
"CA001096470","1975-06-19",71.06,51.08,0.00,0.00,
"CA001096470","1975-06-20",80.06,42.98,0.00,0.00,
"CA001096470","1975-06-21",68.00,51.98,0.00,0.00,
"CA001096470","1975-06-22",69.98,42.08,25.00,0.00,
"CA001096470","1975-06-23",66.92,50.00,76.00,0.00,
"CA001096470","1975-06-24",73.94,44.96,84.00,0.00,
"CA001096470","1975-06-25",69.08,46.94,74.00,0.00,
"CA001096470","1975-06-26",59.00,44.96,8.00,0.00,
"CA001096470","1975-06-27",,48.92,0.00,0.00,
"CA001096470","1975-06-28",,,0.00,0.00,
"CA001096470","1975-06-29",,,0.00,0.00,
"CA001096470","1975-06-30",,,0.00,0.00,
"CA001096470","1975-07-01",,,0.00,0.00,
"CA001096470","1975-07-02",,,0.00,0.00,
"CA001096470","1975-07-03",,,0.00,0.00,
"CA001096470","1975-07-04",,,0.00,0.00,
"CA001096470","1975-07-05",,,0.00,0.00,
"CA001096470","1975-07-06",,,0.00,0.00,
"CA001096470","1975-07-07",,,0.00,0.00,
"CA001096470","1975-07-08",,,0.00,0.00,
"CA001096470","1975-07-09",,,0.00,0.00,
"CA001096470","1975-07-10",,,0.00,0.00,
"CA001096470","1975-07-11",,,0.00,0.00,
"CA001096470","1975-07-12",,,0.00,0.00,
"CA001096470","1975-07-13",82.94,,0.00,0.00,
"CA001096470","1975-07-14",78.98,55.94,33.00,0.00,
"CA001096470","1975-07-15",66.92,57.02,81.00,0.00,
"CA001096470","1975-07-16",73.04,55.04,5.00,0.00,
"CA001096470","1975-07-17",73.94,53.06,0.00,0.00,
"CA001096470","1975-07-18",69.98,53.06,102.00,0.00,
"CA001096470","1975-07-19",66.92,48.92,38.00,0.00,
"CA001096470","1975-07-20",68.00,46.04,0.00,0.00,
"CA001096470","1975-07-21",66.02,48.02,0.00,0.00,
"CA001096470","1975-07-22",75.02,42.98,0.00,0.00,
"CA001096470","1975-07-23",80.06,44.06,15.00,0.00,
"CA001096470","1975-07-24",73.94,53.06,13.00,0.00,
"CA001096470","1975-07-25",,46.94,0.00,0.00,
"CA001096470","1975-07-26",,,0.00,0.00,
"CA001096470","1975-07-27",69.98,,48.00,0.00,
"CA001096470","1975-07-28",62.06,46.04,13.00,0.00,
"CA001096470","1975-07-29",64.04,46.04,0.00,0.00,
"CA001096470","1975-07-30",,,0.00,0.00,
"CA001096470","1975-07-31",,,0.00,0.00,
"CA001096470","1975-08-01",,,0.00,0.00,
"CA001096470","1975-08-02",,,0.00,0.00,
"CA001096470","1975-08-03",,,0.00,0.00,
"CA001096470","1975-08-04",73.04,,114.00,0.00,
"CA001096470","1975-08-05",66.02,39.92,8.00,0.00,
"CA001096470","1975-08-06",62.96,46.94,33.00,0.00,
"CA001096470","1975-08-07",62.96,48.02,41.00,0.00,
"CA001096470","1975-08-08",66.02,46.04,38.00,0.00,
"CA001096470","1975-08-09",57.92,48.92,15.00,0.00,
"CA001096470","1975-08-10",,,0.00,0.00,
"CA001096470","1975-08-11",66.02,46.04,0.00,0.00,
"CA001096470","1975-08-12",68.00,42.08,0.00,0.00,
"CA001096470","1975-08-13",75.92,41.00,0.00,0.00,
"CA001096470","1975-08-14",80.06,42.98,0.00,0.00,
"CA001096470","1975-08-15",75.92,42.98,0.00,0.00,
"CA001096470","1975-08-16",,,0.00,0.00,
"CA001096470","1975-08-17",,,0.00,0.00,
"CA001096470","1975-08-18",68.00,,0.00,0.00,
"CA001096470","1975-08-19",69.08,42.08,18.00,0.00,
"CA001096470","1975-08-20",68.00,53.96,5.00,0.00,
"CA001096470","1975-08-21",68.00,51.08,13.00,0.00,
"CA001096470","1975-08-22",64.94,44.96,0.00,0.00,
"CA001096470","1975-08-23",,,0.00,0.00,
"CA001096470","1975-08-24",,,8.00,0.00,
"CA001096470","1975-08-25",60.08,46.94,25.00,0.00,
"CA001096470","1975-08-26",57.92,42.98,25.00,0.00,
"CA001096470","1975-08-27",68.00,51.98,71.00,0.00,
"CA001096470","1975-08-28",69.98,46.94,5.00,0.00,
"CA001096470","1975-08-29",,44.96,0.00,0.00,
"CA001096470","1975-08-30",,,0.00,0.00,
"CA001096470","1975-08-31",,,0.00,0.00,
"CA001096470","1975-09-01",,,0.00,0.00,
"CA001096470","1975-09-02",62.96,42.08,15.00,0.00,
"CA001096470","1975-09-03",62.96,41.00,18.00,0.00,
"CA001096470","1975-09-04",62.96,44.96,30.00,0.00,
"CA001096470","1975-09-05",60.08,42.08,8.00,0.00,
"CA001096470","1975-09-06",,,0.00,0.00,
"CA001096470","1975-09-07",68.00,,0.00,0.00,
"CA001096470","1975-09-08",64.94,37.04,0.00,0.00,
"CA001096470","1975-09-09",64.94,37.94,0.00,0.00,
"CA001096470","1975-09-10",66.02,37.04,0.00,0.00,
"CA001096470","1975-09-11",69.08,35.96,0.00,0.00,
"CA001096470","1975-09-12",71.96,35.96,0.00,0.00,
"CA001096470","1975-09-13",,,0.00,0.00,
"CA001096470","1975-09-14",69.08,,0.00,0.00,
"CA001096470","1975-09-15",51.98,37.94,84.00,0.00,
"CA001096470","1975-09-16",57.92,44.96,20.00,0.00,
"CA001096470","1975-09-17",62.96,33.08,0.00,0.00,
"CA001096470","1975-09-18",66.02,33.08,0.00,0.00,
"CA001096470","1975-09-19",71.96,33.98,0.00,0.00,
"CA001096470","1975-09-20",75.92,33.08,0.00,0.00,
"CA001096470","1975-09-21",75.02,33.98,0.00,0.00,
"CA001096470","1975-09-22",75.02,33.98,0.00,0.00,
"CA001096470","1975-09-23",75.92,33.98,0.00,0.00,
"CA001096470","1975-09-24",62.96,39.92,,0.00,
"CA001096470","1975-09-25",,42.08,,0.00,
"CA001096470","1975-09-26",,,,0.00,
"CA001096470","1975-09-27",,,,0.00,
"CA001096470","1975-09-28",55.04,,,0.00,
"CA001096470","1975-09-29",59.00,33.98,0.00,0.00,
"CA001096470","1975-09-30",71.06,42.08,0.00,0.00,
"CA001096470","1975-10-01",73.04,37.04,0.00,0.00,
"CA001096470","1975-10-02",73.04,37.94,0.00,0.00,
"CA001096470","1975-10-03",68.00,41.00,0.00,0.00,
"CA001096470","1975-10-04",55.94,44.06,0.00,0.00,
"CA001096470","1975-10-05",46.04,37.94,84.00,0.00,
"CA001096470","1975-10-06",53.96,33.08,0.00,0.00,
"CA001096470","1975-10-07",53.06,30.92,0.00,0.00,
"CA001096470","1975-10-08",55.04,32.00,15.00,0.00,
"CA001096470","1975-10-09",48.92,37.04,10.00,0.00,
"CA001096470","1975-10-10",51.98,32.00,0.00,0.00,
"CA001096470","1975-10-11",48.92,35.96,0.00,0.00,
"CA001096470","1975-10-12",57.02,33.98,0.00,0.00,
"CA001096470","1975-10-13",55.94,32.00,8.00,0.00,
"CA001096470","1975-10-14",57.02,35.96,152.00,0.00,
"CA001096470","1975-10-15",53.96,42.98,13.00,0.00,
"CA001096470","1975-10-16",46.94,37.94,13.00,0.00,
"CA001096470","1975-10-17",48.02,42.98,20.00,0.00,
"CA001096470","1975-10-18",46.94,32.00,0.00,0.00,
"CA001096470","1975-10-19",51.98,42.98,0.00,0.00,
"CA001096470","1975-10-20",46.94,28.04,8.00,0.00,
"CA001096470","1975-10-21",46.04,21.92,0.00,0.00,
"CA001096470","1975-10-22",41.00,26.06,0.00,0.00,
"CA001096470","1975-10-23",42.08,26.96,0.00,0.00,
"CA001096470","1975-10-24",42.08,28.04,0.00,0.00,
"CA001096470","1975-10-25",41.00,28.04,13.00,13.00,
"CA001096470","1975-10-26",37.94,32.00,0.00,0.00,
"CA001096470","1975-10-27",33.08,30.92,0.00,0.00,
"CA001096470","1975-10-28",42.08,30.92,0.00,0.00,
"CA001096470","1975-10-29",35.06,30.92,0.00,0.00,
"CA001096470","1975-10-30",42.08,30.92,0.00,0.00,
"CA001096470","1975-10-31",46.94,30.92,51.00,0.00,
"CA001096470","1975-11-01",39.92,32.00,0.00,0.00,
"CA001096470","1975-11-02",51.98,30.92,33.00,0.00,
"CA001096470","1975-11-03",50.00,33.08,117.00,0.00,
"CA001096470","1975-11-04",35.06,32.00,127.00,76.00,
"CA001096470","1975-11-05",35.06,32.00,76.00,76.00,
"CA001096470","1975-11-06",37.94,23.00,0.00,0.00,
"CA001096470","1975-11-07",39.92,30.02,0.00,0.00,
"CA001096470","1975-11-08",,,0.00,0.00,
"CA001096470","1975-11-09",,,0.00,0.00,
"CA001096470","1975-11-10",28.04,,0.00,0.00,
"CA001096470","1975-11-11",35.96,15.08,0.00,0.00,
"CA001096470","1975-11-12",46.04,35.06,8.00,0.00,
"CA001096470","1975-11-13",46.04,35.06,0.00,0.00,
"CA001096470","1975-11-14",51.98,32.00,0.00,0.00,
"CA001096470","1975-11-15",48.02,30.02,0.00,0.00,
"CA001096470","1975-11-16",42.98,28.94,0.00,0.00,
"CA001096470","1975-11-17",33.98,21.92,0.00,0.00,
"CA001096470","1975-11-18",28.94,12.92,0.00,0.00,
"CA001096470","1975-11-19",30.02,15.98,0.00,0.00,
"CA001096470","1975-11-20",23.00,12.02,0.00,0.00,
"CA001096470","1975-11-21",23.00,8.96,25.00,25.00,
"CA001096470","1975-11-22",26.06,19.04,71.00,71.00,
"CA001096470","1975-11-23",24.08,15.08,76.00,76.00,
"CA001096470","1975-11-24",26.96,3.92,0.00,0.00,
"CA001096470","1975-11-25",28.94,8.96,211.00,211.00,
"CA001096470","1975-11-26",28.04,21.92,0.00,0.00,
"CA001096470","1975-11-27",19.94,-0.04,0.00,0.00,
"CA001096470","1975-11-28",15.08,-0.94,0.00,0.00,
"CA001096470","1975-11-29",8.06,-9.04,13.00,13.00,
"CA001096470","1975-11-30",17.06,-7.96,89.00,89.00,
"CA001096470","1975-12-01",15.08,1.04,30.00,30.00,
"CA001096470","1975-12-02",24.08,14.00,102.00,102.00,
"CA001096470","1975-12-03",12.02,6.08,23.00,23.00,
"CA001096470","1975-12-04",10.04,-2.92,10.00,10.00,
"CA001096470","1975-12-05",30.02,-2.92,0.00,0.00,
"CA001096470","1975-12-06",30.92,17.06,0.00,0.00,
"CA001096470","1975-12-07",33.98,24.08,0.00,0.00,
"CA001096470","1975-12-08",42.98,33.98,0.00,0.00,
"CA001096470","1975-12-09",33.08,24.98,0.00,0.00,
"CA001096470","1975-12-10",17.96,8.06,0.00,0.00,
"CA001096470","1975-12-11",6.98,-5.08,10.00,10.00,
"CA001096470","1975-12-12",10.04,-5.98,0.00,0.00,
"CA001096470","1975-12-13",12.02,3.02,0.00,0.00,
"CA001096470","1975-12-14",24.08,1.04,0.00,0.00,
"CA001096470","1975-12-15",24.98,1.04,0.00,0.00,
"CA001096470","1975-12-16",15.98,6.08,13.00,13.00,
"CA001096470","1975-12-17",28.94,5.00,0.00,0.00,
"CA001096470","1975-12-18",35.06,12.02,0.00,0.00,
"CA001096470","1975-12-19",35.06,21.92,0.00,0.00,
"CA001096470","1975-12-20",28.04,10.94,0.00,0.00,
"CA001096470","1975-12-21",39.92,6.08,0.00,0.00,
"CA001096470","1975-12-22",37.04,15.08,0.00,0.00,
"CA001096470","1975-12-23",35.96,17.06,13.00,13.00,
"CA001096470","1975-12-24",42.98,17.06,0.00,0.00,
"CA001096470","1975-12-25",37.94,19.94,36.00,36.00,
"CA001096470","1975-12-26",44.96,26.06,0.00,0.00,
"CA001096470","1975-12-27",46.04,32.00,33.00,33.00,
"CA001096470","1975-12-28",46.04,32.00,0.00,0.00,
"CA001096470","1975-12-29",42.98,32.00,0.00,0.00,
"CA001096470","1975-12-30",41.00,26.06,0.00,0.00,
"CA001096470","1975-12-31",15.98,3.92,0.00,0.00,
"CA001096470","1976-01-01",32.00,10.04,0.00,0.00,
"CA001096470","1976-01-02",19.94,6.08,91.00,91.00,
"CA001096470","1976-01-03",24.08,12.92,46.00,46.00,
"CA001096470","1976-01-04",28.04,12.02,102.00,102.00,
"CA001096470","1976-01-05",-0.04,-2.02,64.00,64.00,
"CA001096470","1976-01-06",-0.04,-7.96,0.00,0.00,
"CA001096470","1976-01-07",1.04,-9.04,76.00,76.00,
"CA001096470","1976-01-08",8.06,-7.06,0.00,0.00,
"CA001096470","1976-01-09",30.02,3.92,0.00,0.00,
"CA001096470","1976-01-10",30.92,12.02,0.00,0.00,
"CA001096470","1976-01-11",32.00,10.04,30.00,30.00,
"CA001096470","1976-01-12",26.06,8.06,0.00,0.00,
"CA001096470","1976-01-13",15.98,-4.00,51.00,51.00,
"CA001096470","1976-01-14",21.92,-2.92,76.00,76.00,
"CA001096470","1976-01-15",33.98,12.02,152.00,152.00,
"CA001096470","1976-01-16",42.98,30.02,0.00,0.00,
"CA001096470","1976-01-17",42.08,24.98,0.00,0.00,
"CA001096470","1976-01-18",44.06,30.02,0.00,0.00,
"CA001096470","1976-01-19",41.00,24.08,0.00,0.00,
"CA001096470","1976-01-20",41.00,24.08,0.00,0.00,
"CA001096470","1976-01-21",42.08,28.04,0.00,0.00,
"CA001096470","1976-01-22",41.00,30.02,0.00,0.00,
"CA001096470","1976-01-23",39.92,17.06,102.00,102.00,
"CA001096470","1976-01-24",37.94,12.02,61.00,61.00,
"CA001096470","1976-01-25",37.94,10.04,157.00,157.00,
"CA001096470","1976-01-26",35.06,1.94,13.00,13.00,
"CA001096470","1976-01-27",46.04,1.94,0.00,0.00,
"CA001096470","1976-01-28",,6.08,0.00,0.00,
"CA001096470","1976-01-29",,,0.00,0.00,
"CA001096470","1976-01-30",,,0.00,0.00,
"CA001096470","1976-01-31",,,0.00,0.00,
"CA001096470","1976-02-01",,,0.00,0.00,
"CA001096470","1976-02-02",,,0.00,0.00,
"CA001096470","1976-02-03",,,0.00,0.00,
"CA001096470","1976-02-04",24.98,-2.92,0.00,0.00,
"CA001096470","1976-02-05",19.04,-11.92,0.00,0.00,
"CA001096470","1976-02-06",23.00,1.04,0.00,0.00,
"CA001096470","1976-02-07",37.94,21.02,0.00,0.00,
"CA001096470","1976-02-08",46.04,30.02,0.00,0.00,
"CA001096470","1976-02-09",33.98,21.92,102.00,102.00,
"CA001096470","1976-02-10",33.98,21.92,25.00,25.00,
"CA001096470","1976-02-11",35.96,33.08,25.00,25.00,
"CA001096470","1976-02-12",33.98,1.94,0.00,0.00,
"CA001096470","1976-02-13",24.98,6.08,99.00,99.00,
"CA001096470","1976-02-14",26.96,19.94,51.00,51.00,
"CA001096470","1976-02-15",33.98,15.08,38.00,38.00,
"CA001096470","1976-02-16",37.94,28.04,51.00,51.00,
"CA001096470","1976-02-17",35.96,24.08,38.00,38.00,
"CA001096470","1976-02-18",33.98,12.02,38.00,38.00,
"CA001096470","1976-02-19",35.06,10.94,0.00,0.00,
"CA001096470","1976-02-20",33.98,14.00,0.00,0.00,
"CA001096470","1976-02-21",42.08,21.92,0.00,0.00,
"CA001096470","1976-02-22",46.04,33.98,0.00,0.00,
"CA001096470","1976-02-23",41.00,21.92,0.00,0.00,
"CA001096470","1976-02-24",35.96,12.02,0.00,0.00,
"CA001096470","1976-02-25",33.98,19.94,25.00,25.00,
"CA001096470","1976-02-26",30.02,12.02,0.00,0.00,
"CA001096470","1976-02-27",15.98,-0.04,0.00,0.00,
"CA001096470","1976-02-28",12.02,-9.04,0.00,0.00,
"CA001096470","1976-02-29",12.92,-9.94,0.00,0.00,
"CA001096470","1976-03-01",-9.94,-16.06,0.00,0.00,
"CA001096470","1976-03-02",1.94,-25.96,0.00,0.00,
"CA001096470","1976-03-03",8.06,-20.92,0.00,0.00,
"CA001096470","1976-03-04",23.00,-14.98,0.00,0.00,
"CA001096470","1976-03-05",39.92,8.06,0.00,0.00,
"CA001096470","1976-03-06",44.06,24.08,0.00,0.00,
"CA001096470","1976-03-07",48.92,26.06,8.00,0.00,
"CA001096470","1976-03-08",42.08,33.08,25.00,0.00,
"CA001096470","1976-03-09",44.06,32.00,25.00,25.00,
"CA001096470","1976-03-10",44.06,28.94,0.00,0.00,
"CA001096470","1976-03-11",33.98,8.06,13.00,13.00,
"CA001096470","1976-03-12",42.98,8.06,5.00,5.00,
"CA001096470","1976-03-13",42.08,8.96,0.00,0.00,
"CA001096470","1976-03-14",41.00,10.04,0.00,0.00,
"CA001096470","1976-03-15",35.96,12.92,69.00,30.00,
"CA001096470","1976-03-16",42.98,28.04,5.00,0.00,
"CA001096470","1976-03-17",53.06,39.92,0.00,0.00,
"CA001096470","1976-03-18",51.98,28.94,38.00,38.00,
"CA001096470","1976-03-19",44.06,28.04,13.00,13.00,
"CA001096470","1976-03-20",44.06,26.96,0.00,0.00,
"CA001096470","1976-03-21",46.94,24.08,8.00,8.00,
"CA001096470","1976-03-22",46.94,32.00,0.00,0.00,
"CA001096470","1976-03-23",44.06,28.94,0.00,0.00,